User: anonymous   Login
Location: Unspecified
(0.0000°N, 0.0000°E)
Time: 15:33:21
(UTC+00:00)
Language:

Orbcomm F1 (FM01) - Orbit

View from above orbital plane
View from above orbital plane
View from above satellite
View from above satellite

Ground track
Ground track

The orbit data is extracted from the following two-line orbital elements,

1 23545U 95017A   18115.93093271 +.00000370 +00000-0 +72040-4 0  9998
2 23545 069.9691 303.8577 0007974 236.3611 123.6774 14.71039537227846
Epoch (UTC): 25 April 2018 22:20:32
Eccentricity: 0.0007974
inclination: 69.9691°
perigee height: 652 km
apogee height: 663 km
right ascension of ascending node: 303.8577°
argument of perigee: 236.3611°
revolutions per day: 14.71039537
mean anomaly at epoch: 123.6774°
orbit number at epoch: 22784

The dashed part of the orbit path shows where the satellite is in the earth's shadow,  

DLR